Home   Weather   Pasco   Past weeks

Flag for USA Past Weather in Pasco, Washington, USA — Yesterday and Last 2 Weeks

49 °F


Feels Like: 47 °F
Forecast: 42 / 60 °F
Wind: 5 mph from Northwest

Location: Tri-Cities Airport

Current Time: Oct 28, 2016 at 11:05:19 AM

Latest Report: Oct 28, 2016 at 9:53 AM

Visibility: 10 mi

Pressure: 30.06 "Hg

Humidity: 93%

Dew Point: 47 °F

Location of PascoLocation

Past Weather in Pasco — Graph


Pasco Temperature Yesterday

Maximum temperature yesterday: 56 °F (at 11:53 AM)
Minimum temperature yesterday: 49 °F (at 11:53 PM)
Average temperature yesterday: 54 °F

High & Low Weather Summary for the Past Weeks

High71 °F (Oct 14, 3:53 PM)100% (Oct 20, 4:53 AM)30.40 "Hg (Oct 20, 4:53 AM)
Low39 °F (Oct 28, 5:53 AM)31% (Oct 14, 2:53 PM)29.30 "Hg (Oct 13, 11:53 PM)
Average54 °F79%29.86 "Hg
* Reported Oct 13 9:53 AM — Oct 28 9:53 AM, Pasco, Weather by CustomWeather, © 2016

Note: Actual official high and low records may vary slightly from our data, if they occured in-between our weather recording intervals... More about our weather records


Pasco Weather History for the Previous 24 Hours

Scroll right to see more
Time TempWeatherWind HumidityBarometerVisibility
9:53 AM
Fri, Oct 28
49 °FSunny.5 mph93%30.06 "Hg10 mi
8:53 AM46 °FSunny.No wind100%30.05 "Hg10 mi
7:53 AM39 °FSunny.6 mph100%30.03 "Hg7 mi
6:53 AM39 °FClear.No wind100%30.02 "Hg10 mi
5:53 AM39 °FPassing clouds.3 mph96%30.00 "Hg10 mi
4:53 AM41 °FPassing clouds.No wind100%29.99 "Hg10 mi
3:53 AM42 °FClear.No wind100%29.98 "Hg10 mi
2:53 AM42 °FClear.No wind100%29.98 "Hg10 mi
1:53 AM42 °FClear.6 mph100%29.96 "Hg10 mi
12:53 AM46 °FClear.No wind100%29.95 "Hg10 mi
11:53 PM
Thu, Oct 27
49 °FPassing clouds.3 mph93%29.93 "Hg10 mi
10:53 PM51 °FPassing clouds.No wind89%29.93 "Hg10 mi
9:53 PM51 °FClear.No wind92%29.92 "Hg10 mi
8:53 PM52 °FOvercast.No wind93%29.90 "Hg10 mi
7:53 PM53 °FOvercast.6 mph89%29.89 "Hg10 mi
6:53 PM54 °FOvercast.3 mph83%29.88 "Hg10 mi
5:53 PM54 °FOvercast.8 mph86%29.87 "Hg10 mi
4:53 PM55 °FCloudy.8 mph87%29.87 "Hg10 mi
3:53 PM56 °FLight rain. More clouds than sun.12 mph87%29.87 "Hg10 mi
2:53 PM56 °FOvercast.6 mph90%29.85 "Hg10 mi
1:53 PM55 °FLight rain. Overcast.5 mph93%29.87 "Hg10 mi
12:53 PM56 °FLight rain. More clouds than sun.6 mph93%29.88 "Hg10 mi
11:53 AM56 °FLight rain. Cloudy.5 mph93%29.89 "Hg10 mi
Weather by CustomWeather, © 2016

See weather overviewHow to use our weather pages